Weather History for KAPY - October, 2012

Change the Weather History Date:

Friday, October 19, 2012

  Actual Average (KLRD) Record (KLRD)
Temperature  
Mean Temperature 79 °F 75 °F  
Max Temperature 87 °F 86 °F 99 °F (2004)
Min Temperature 71 °F 65 °F 41 °F (1917)
Degree Days  
Heating Degree Days 0 0  
Month to date heating degree days 0  
Since 1 July heating degree days 1  
Cooling Degree Days 14 11  
Month to date cooling degree days 237  
Year to date cooling degree days 4022  
Growing Degree Days 29 (Base 50)    
Moisture  
Dew Point 60 °F    
Average Humidity 53    
Maximum Humidity 74    
Minimum Humidity 43    
Precipitation  
Precipitation 0.00 in 0.07 in 1.03 in (1942)
Month to date precipitation 1.52  
Year to date precipitation 17.44  
Sea Level Pressure  
Sea Level Pressure 29.94 in    
Wind  
Wind Speed 5 mph (East)    
Max Wind Speed 12 mph    
Max Gust Speed 20 mph    
Visibility 10 miles    
Events      
T = Trace of Precipitation, MM = Missing Value Source: NWS Daily Summary

Daily Weather History Graph

Daily Weather History Graph

Search for Another Location

Airport or City:

Trip Planner

Search our weather history database for the weather conditions in past years. The results will help you decide how hot, cold, wet, or windy it might be!

Date:

Astronomy

Oct. 19, 2012 Rise Set
Actual Time 7:39 AM CDT 7:04 PM CDT
Civil Twilight 7:15 AM CDT 7:27 PM CDT
Nautical Twilight 6:48 AM CDT 7:54 PM CDT
Astronomical Twilight 6:21 AM CDT 8:21 PM CDT
Moon 12:05 PM CDT (10/19) 11:01 PM CDT (10/19)
Length of Visible Light 12h 12m
Length of Day
11h 25m
Waxing Crescent, 24% of the Moon is Illuminated
Oct 19
Waxing Crescent
Oct 21
First Quarter
Oct 29
Full
Nov 6
Last Quarter
Nov 13
New

Hourly Weather History & Observations

Time (CDT) Temp. Heat Index Dew Point Humidity Pressure Visibility Wind Dir Wind Speed Gust Speed Precip Events Conditions
1:15 AM 76.5 °F - 60.1 °F 57% 29.92 in 10.0 mi NNE 6.9 mph - N/A   Scattered Clouds
1:35 AM 75.9 °F - 59.7 °F 57% 29.92 in 10.0 mi NE 5.8 mph - N/A   Scattered Clouds
1:55 AM 75.6 °F - 59.2 °F 57% 29.92 in 10.0 mi NE 4.6 mph - N/A   Overcast
2:15 AM 75.7 °F - 59.2 °F 56% 29.93 in 10.0 mi NE 6.9 mph - N/A   Overcast
2:35 AM 75.4 °F - 58.6 °F 56% 29.93 in 10.0 mi NE 6.9 mph - N/A   Overcast
2:55 AM 74.7 °F - 58.5 °F 57% 29.93 in 10.0 mi NE 6.9 mph - N/A   Scattered Clouds
3:15 AM 74.1 °F - 57.0 °F 55% 29.93 in 10.0 mi NE 10.4 mph - N/A   Clear
3:35 AM 73.6 °F - 56.3 °F 55% 29.92 in 10.0 mi NE 5.8 mph - N/A   Clear
3:55 AM 72.9 °F - 55.4 °F 54% 29.92 in 10.0 mi NE 3.5 mph - N/A   Clear
4:15 AM 72.5 °F - 55.2 °F 54% 29.92 in 10.0 mi Calm Calm - N/A   Scattered Clouds
4:35 AM 72.5 °F - 55.4 °F 55% 29.92 in 10.0 mi Calm Calm - N/A   Mostly Cloudy
4:55 AM 73.4 °F - 55.4 °F 53% 29.93 in 10.0 mi Calm Calm - N/A   Overcast
5:15 AM 73.4 °F - 55.6 °F 54% 29.93 in 10.0 mi North 3.5 mph - N/A   Overcast
5:35 AM 73.2 °F - 55.4 °F 54% 29.94 in 10.0 mi North 3.5 mph - N/A   Overcast
5:55 AM 72.0 °F - 55.6 °F 56% 29.94 in 10.0 mi Calm Calm - N/A   Overcast
6:15 AM 72.1 °F - 55.2 °F 55% 29.95 in 10.0 mi NNE 3.5 mph - N/A   Overcast
6:35 AM 72.5 °F - 54.3 °F 53% 29.96 in 10.0 mi North 3.5 mph - N/A   Overcast
6:55 AM 72.5 °F - 53.6 °F 51% 29.96 in 10.0 mi NNE 3.5 mph - N/A   Overcast
7:15 AM 72.1 °F - 52.9 °F 51% 29.96 in 10.0 mi Calm Calm - N/A   Mostly Cloudy
7:35 AM 71.8 °F - 53.1 °F 52% 29.97 in 10.0 mi Calm Calm - N/A   Overcast
7:55 AM 71.6 °F - 53.6 °F 53% 29.97 in 10.0 mi Calm Calm - N/A   Mostly Cloudy
8:35 AM 72.0 °F - 54.1 °F 53% 29.99 in 10.0 mi Calm Calm - N/A   Overcast
8:55 AM 72.9 °F - 52.2 °F 48% 29.99 in 10.0 mi Calm Calm - N/A   Overcast
9:15 AM 73.6 °F - 52.0 °F 47% 30.00 in 10.0 mi Calm Calm - N/A   Overcast
9:35 AM 74.1 °F - 51.6 °F 45% 30.01 in 10.0 mi Calm Calm - N/A   Overcast
9:55 AM 75.2 °F - 52.0 °F 44% 30.02 in 10.0 mi Calm Calm - N/A   Overcast
10:15 AM 75.7 °F - 52.2 °F 44% 30.02 in 10.0 mi NE 4.6 mph - N/A   Overcast
10:35 AM 76.6 °F - 52.7 °F 43% 30.02 in 10.0 mi Calm Calm - N/A   Overcast
10:55 AM 76.6 °F - 53.1 °F 44% 30.02 in 10.0 mi Calm Calm - N/A   Overcast
11:15 AM 78.1 °F - 53.6 °F 43% 30.02 in 10.0 mi SE 3.5 mph - N/A   Mostly Cloudy
11:35 AM 79.2 °F - 54.7 °F 43% 30.02 in 10.0 mi East 3.5 mph - N/A   Overcast
11:55 AM 79.5 °F - 55.8 °F 44% 30.01 in 10.0 mi SE 5.8 mph - N/A   Mostly Cloudy
12:15 PM 80.4 °F 80.6 °F 56.7 °F 44% 30.01 in 10.0 mi East 4.6 mph - N/A   Mostly Cloudy
12:35 PM 80.6 °F 80.9 °F 57.9 °F 46% 30.00 in 10.0 mi ESE 5.8 mph - N/A   Overcast
12:55 PM 80.8 °F 81.2 °F 59.0 °F 47% 29.99 in 10.0 mi SE 5.8 mph - N/A   Overcast
1:15 PM 81.3 °F 81.7 °F 59.5 °F 47% 29.99 in 10.0 mi SSE 4.6 mph - N/A   Overcast
1:35 PM 80.8 °F 81.3 °F 59.5 °F 48% 29.98 in 10.0 mi Calm Calm - N/A   Overcast
1:55 PM 81.5 °F 82.0 °F 59.9 °F 48% 29.97 in 10.0 mi Calm Calm - N/A   Overcast
2:15 PM 84.0 °F 84.2 °F 60.8 °F 45% 29.95 in 10.0 mi ENE 3.5 mph - N/A   Overcast
2:35 PM 83.1 °F 83.7 °F 61.7 °F 48% 29.94 in 10.0 mi Calm Calm - N/A   Overcast
2:55 PM 86.0 °F 86.6 °F 62.4 °F 45% 29.93 in 10.0 mi ESE 3.5 mph - N/A   Overcast
3:15 PM 85.8 °F 86.6 °F 63.0 °F 46% 29.92 in 10.0 mi North 3.5 mph - N/A   Mostly Cloudy
3:35 PM 87.4 °F 88.2 °F 62.8 °F 44% 29.91 in 10.0 mi East 5.8 mph - N/A   Mostly Cloudy
3:55 PM 86.2 °F 87.1 °F 63.0 °F 46% 29.90 in 10.0 mi NE 3.5 mph - N/A   Scattered Clouds
4:15 PM 87.1 °F 88.0 °F 63.5 °F 45% 29.90 in 10.0 mi East 6.9 mph - N/A   Mostly Cloudy
4:35 PM 86.2 °F 87.3 °F 63.5 °F 47% 29.89 in 10.0 mi East 4.6 mph - N/A   Overcast
4:55 PM 86.2 °F 87.3 °F 63.7 °F 47% 29.89 in 10.0 mi ESE 6.9 mph - N/A   Overcast
5:15 PM 87.6 °F 88.8 °F 63.7 °F 45% 29.89 in 10.0 mi East 6.9 mph - N/A   Overcast
5:35 PM 86.5 °F 87.6 °F 63.7 °F 46% 29.89 in 10.0 mi ESE 6.9 mph - N/A   Overcast
5:55 PM 85.6 °F 86.8 °F 63.7 °F 48% 29.89 in 10.0 mi ESE 3.5 mph - N/A   Overcast
6:15 PM 86.0 °F 87.1 °F 63.5 °F 47% 29.89 in 10.0 mi ESE 5.8 mph - N/A   Overcast
6:35 PM 85.1 °F 86.6 °F 64.4 °F 50% 29.89 in 10.0 mi ESE 8.1 mph - N/A   Overcast
6:55 PM 84.4 °F 86.3 °F 65.7 °F 53% 29.89 in 10.0 mi ESE 8.1 mph - N/A   Overcast
7:15 PM 83.3 °F 85.5 °F 66.2 °F 56% 29.89 in 10.0 mi ESE 9.2 mph - N/A   Overcast
7:35 PM 82.6 °F 84.7 °F 65.8 °F 57% 29.90 in 10.0 mi ESE 11.5 mph 17.3 mph N/A   Overcast
7:55 PM 81.9 °F 84.1 °F 66.0 °F 59% 29.91 in 10.0 mi East 11.5 mph 16.1 mph N/A   Mostly Cloudy
8:15 PM 81.1 °F 83.2 °F 66.0 °F 60% 29.91 in 10.0 mi East 11.5 mph 19.6 mph N/A   Mostly Cloudy
8:35 PM 80.4 °F 82.4 °F 65.8 °F 61% 29.91 in 10.0 mi East 10.4 mph - N/A   Scattered Clouds
8:55 PM 79.7 °F - 65.7 °F 62% 29.92 in 10.0 mi East 6.9 mph - N/A   Scattered Clouds
9:15 PM 79.3 °F - 65.7 °F 63% 29.92 in 10.0 mi ESE 10.4 mph 18.4 mph N/A   Mostly Cloudy
9:35 PM 79.2 °F - 65.7 °F 63% 29.92 in 10.0 mi ESE 9.2 mph 16.1 mph N/A   Mostly Cloudy
9:55 PM 78.1 °F - 65.7 °F 65% 29.93 in 10.0 mi ESE 10.4 mph 17.3 mph N/A   Scattered Clouds
10:15 PM 77.4 °F - 65.8 °F 67% 29.92 in 10.0 mi ESE 8.1 mph - N/A   Scattered Clouds
10:35 PM 77.0 °F - 66.2 °F 69% 29.93 in 10.0 mi ESE 6.9 mph - N/A   Clear
10:55 PM 76.1 °F - 66.2 °F 71% 29.93 in 10.0 mi ESE 6.9 mph - N/A   Clear
11:15 PM 75.7 °F - 66.2 °F 72% 29.93 in 10.0 mi ESE 6.9 mph - N/A   Clear
11:35 PM 75.2 °F - 66.2 °F 73% 29.93 in 10.0 mi ESE 5.8 mph - N/A   Clear
11:55 PM 75.2 °F - 66.4 °F 74% 29.93 in 10.0 mi ESE 6.9 mph - N/A   Clear